Regional Weather Roundup
Issued by NWS Charleston, SC

Current Version | Previous Version | Text Only | Print | Product List | Glossary Off
Versions: 1 2 3 4 5 6 7 8 9 10 11 12 13 14 15 16 17 18 19 20 21 22 23 24 25 26 27 28 29 30 31 32 33 34 35 36 37 38 39 40 41 42 43 44 45 46 47 48 49 50
000 ASUS42 KCHS 260810 RWRCHS REGIONAL WEATHER ROUNDUP NATIONAL WEATHER SERVICE CHARLESTON SC 300 AM EST WED NOV 26 2014 NOTE: "FAIR" INDICATES FEW OR NO CLOUDS BELOW 12,000 FEET WITH NO SIGNIFICANT WEATHER AND/OR OBSTRUCTIONS TO VISIBILITY. NOT ALL STATIONS ARE QUALITY CONTROLLED BY THE NATIONAL WEATHER SERVICE. USE DATA WITH CAUTION...ESPECIALLY DEWPOINT OBSERVATIONS. SCZ027-030-031-034>040-042>050-260900- ...SOUTHEAST SOUTH CAROLINA... CITY SKY/WX TMP DP RH WIND PRES REMARKS N CHARLESTON RAIN 60 59 96 NW9 29.78F FOG WATERFRONT PRK NOT AVBL MOUNT PLEASANT NOT AVBL JOHNS ISLAND HVY RAIN 63 63 100 NW8 29.78F PINOPOLIS N/A 59 0 9 N9 N/A MONCKS CORNER LGT RAIN 61 61 100 N3 29.79F SUMMERVILLE HVY RAIN 59 59 100 N9 29.80F BEAUFORT MCAS LGT RAIN 59 58 96 NW12 29.83R FOG BEAUFORT ARPT LGT RAIN N/A N/A N/A NW10 29.82R HILTON HEAD IS LGT RAIN 59 59 100 NW7 29.83S WALTERBORO HVY RAIN 59 N/A N/A NW8 29.83S ALLENDALE RAIN 50 50 100 NW8 29.88R ...SOUTHERN MIDLANDS AND PEE DEE... CITY SKY/WX TMP DP RH WIND PRES REMARKS GEORGETOWN NOT AVBL KINGSTREE NOT AVBL ORANGEBURG LGT RAIN 56 53 90 NW9 29.85S FOG BARNWELL HVY RAIN 50 48 93 NW10G17 29.90S AIKEN RAIN 48 48 100 NW13 29.95F MANNING NOT AVBL COLUMBIA HVY RAIN 53 50 89 NW13G20 29.90R FOG SUMTER RAIN 54 50 87 NW9 29.84S FLORENCE HVY RAIN 53 51 93 N10G16 29.83F FOG MYRTLE BEACH CLOUDY 64 63 94 NE3 29.77F N MYRTLE BEACH CLOUDY 67 65 93 E7 29.77F $$ GAZ063-065-086>088-099>101-113>116-118-119-134>141-150-260900- ...SOUTHEAST GEORGIA... CITY SKY/WX TMP DP RH WIND PRES REMARKS SAVANNAH ARPT LGT RAIN 54 49 83 NW14G23 29.86R HUNTER AAF RAIN 54 54 100 NW15G25 29.84R FOG FORT STEWART LGT RAIN 50 48 93 NW12G18 29.89S STATESBORO NOT AVBL SYLVANIA HVY RAIN 49 48 97 NW12G17 29.89F CLAXTON HVY RAIN 50 50 100 NW9 29.92R ...CSRA...CENTRAL AND FAR SOUTHEAST GEORGIA... CITY SKY/WX TMP DP RH WIND PRES REMARKS THOMSON CLOUDY 47 47 100 NW6 29.99F AUGUSTA-BUSH RAIN 48 46 93 NW13 29.93F FOG AUGUSTA-DANIEL LGT RAIN 48 45 89 NW15 29.94F SWAINSBORO HVY RAIN 46 46 100 NW12 29.97R VIDALIA RAIN 46 45 93 NW8G17 29.96R HAZLEHURST RAIN 47 47 100 NW7 29.98R ALMA LGT RAIN 47 45 93 NW16G22 29.95R FOG WAYCROSS RAIN 51 50 97 N15 29.95R JESUP DRIZZLE 52 50 93 NW12G17 29.93R BAXLEY RAIN 48 46 93 NW10G20 29.97R BRUNSWICK CLOUDY 52 50 93 NW13G21 29.89R SAINT SIMONS LGT RAIN 53 52 96 W14G21 29.87R FOG $$ SCZ027-028-034-036>038-045-046-048>050-GAZ119-141-260900- ...LAKE AND SUPPLEMENTAL COASTAL OBSERVATIONS... STATION/POSITION TIME TEMP WIND PRES WAVE SWELL AIR SEA DIR/SP/G HT/PER HT/PER/DIR (UTC) (F) (DEG/KT/KT) (MB) (FT/S) (FT/S/D) UPR LAKE MARION NOT AVBL WINYAH BAY 0700 65 60/ 4 1009.0S LAKE MURRAY 0700 51 320/ 3/ 10 1012.9R ACE BASIN NERRS 0700 59 350/ 2 1009.0F FORT PULASKI 0800 58 290/ 16/ 19 1010.3R SAPELO ISLAND 0700 58 320/ 10 1010.0S $$ ANZ835-935-AMZ111-154-330-350-352-354-370-450-454-472-260900- ...C-MAN AND BUOY OBSERVATIONS... STATION/POSITION TIME TEMP WIND PRES WAVE SWELL AIR SEA DIR/SP/G HT/PER HT/PER/DIR (UTC) (F) (DEG/KT/KT) (MB) (FT/S) (FT/S/D) FOLLY BEACH CMAN 0700 62 280/ 6/ 7 1009.4F BUOY 41004 0800 75 75 150/ 29/ 39 1006.6F 9/ 6 BUOY 41008 0800 60 64 320/ 17/ 21 1009.7R 4/ 5 2/120/ 7 CAPERS NEARSHORE 0700 69 200/ 14/ 17 N/A FRIPP NEARSHORE NOT AVBL STATION/POSITION TIME TEMP WIND PRES WAVE SWELL AIR SEA DIR/SP/G HT/PER HT/PER/DIR (UTC) (F) (DEG/KT/KT) (MB) (FT/S) (FT/S/D) 5E ST. MARYS GA 0800 62 N/A 4/10 FRYING PAN BUOY 0800 73 70 140/ 27/ 33 1007.7F 6/ 5 2/120/ 9 BUOY 41025 0800 69 110/ 6/ 6 1013.2F 5/ 9 5/130/ 9 CAPE LOOKOUT NC 0700 67 130/ 18/ 19 1011.9F BUOY 41002 0729 75 73 180/ 19/ 21 1015.5F 7/ 9 3/110/ 9 BUOY 41010 0800 78 78 190/ 19/ 23 1012.5F 7/ 6 ST AUGUSTINE FL 0800 63 320/ 8/ 10 1011.2R $$

USA.gov is the U.S. government's official web portal to all federal, state and local government web resources and services.